Regional Weather Roundup
Issued by NWS

Home | Current Version | Previous Version | Text Only | Print | Product List | Glossary Off
Versions: 1 2 3 4 5 6 7 8 9 10 11 12 13 14 15 16 17 18 19 20 21 22 23 24 25 26 27 28 29 30 31 32 33 34 35 36 37 38 39 40 41 42 43 44 45 46 47 48 49 50

000
ASUS43 KDMX 041807
RWRIA

WEATHER ROUNDUP FOR IOWA
NATIONAL WEATHER SERVICE DES MOINES IA
1200 PM CST WED MAR 04 2015

NOTE: "FAIR" INDICATES FEW OR NO CLOUDS BELOW 12,000 FEET WITH NO
SIGNIFICANT WEATHER AND/OR OBSTRUCTIONS TO VISIBILITY.

* - THESE STATIONS ARE NOT NWS STATIONS...THUS NOT UNDER NWS
QUALITY CONTROL.  THEY ALSO DO NOT REPORT WEATHER SUCH
AS PRECIPITATION OR FOG.

IAZ001>003-012>014-020>022-031>034-043>046-041900-
   NORTHWEST IOWA

CITY           SKY/WX    TMP DP  RH WIND       PRES   REMARKS
CARROLL *      MOSUNNY   25   5  42 W12G21    30.24F WCI  14
CHEROKEE *       N/A     21   6  51 NW17G24   30.25S WCI   6
DENISON *      MOSUNNY   27   5  39 NW20G25   30.23F WCI  13
LE MARS *      SUNNY     19   1  45 NW20G28   30.30R WCI   4
ORANGE CITY *  SUNNY     19  -2  38 NW28G33   30.25R WCI   1
SHELDON *      SUNNY     16   0  48 NW25G32   30.23S WCI  -3
SIOUX CITY       N/A     24   2  38 NW23G31   30.29R WCI   9
6HR MIN TEMP:   7; 6HR MAX TEMP:  25;

SPENCER          N/A     21   5  50 NW23G29   30.23R WCI   5
6HR MIN TEMP:   2; 6HR MAX TEMP:  21;

STORM LAKE *   MOSUNNY   23   9  54 NW25G32   30.23R WCI   7
$$

IAZ055>058-069>071-079>083-090>094-041900-
   SOUTHWEST IOWA

CITY           SKY/WX    TMP DP  RH WIND       PRES   REMARKS
ATLANTIC *     SUNNY     27   3  36 NW17      30.27F WCI  14
AUDUBON *      SUNNY     27   3  36 NW10G18   30.25S WCI  17
CLARINDA *     SUNNY     25  10  54 VRB6G14   30.31F WCI  18
COUNCIL BLFS * MOSUNNY   28   5  37 NW14G22   30.26S WCI  17
CRESTON *      SUNNY     23   1  39 NW9G16    30.27F WCI  13
HARLAN  *      SUNNY     27   5  39 NW20G26   30.30S WCI  13
LAMONI           N/A     24   7  48 NW18      30.27F WCI  10
6HR MIN TEMP:  15; 6HR MAX TEMP:  24;

RED OAK *      MOSUNNY   25  10  54 NW6G14    30.30S WCI  18
SHENANDOAH *   SUNNY     27   7  43 NW12      30.30F WCI  16
$$

IAZ047>049-059>061-072>074-084-041900-
   CENTRAL IOWA

CITY           SKY/WX    TMP DP  RH WIND       PRES   REMARKS
AMES             N/A     20   5  52 W12       30.27F WCI   8
6HR MIN TEMP:   9; 6HR MAX TEMP:  20;

ANKENY *       SUNNY     21   3  45 W10       30.30S WCI  10
CHARITON *     SUNNY     23   1  39 NW10G17   30.28F WCI  12
DES MOINES     PTSUNNY   22   4  46 NW13      30.29F WCI  10
6HR MIN TEMP:  12; 6HR MAX TEMP:  22;

GRINNELL*        N/A     16   5  62 NW12      30.28F WCI   3
KNOXVILLE *    SUNNY     21   1  42 N12G22    30.27F WCI   9
MARSHALLTOWN     N/A     14   2  58 NW13      30.27S WCI   0
6HR MIN TEMP:   6; 6HR MAX TEMP:  14;

PELLA *          N/A     22  10  60 NW12G20   30.30S WCI  10
PERRY *          N/A     23   9  54 W10       30.28S WCI  12
$$

IAZ004>006-015-016-023>025-035-036-041900-
   NORTH CENTRAL IOWA

CITY           SKY/WX    TMP DP  RH WIND       PRES   REMARKS
ALGONA *       PTSUNNY   16 N/A N/A N7        30.24F WCI   6
CLARION *      SUNNY     18   7  62 NW10G16   30.24F WCI   6
ESTHERVILLE    CLOUDY    12   3  67 N9        30.22F WCI   0
6HR MIN TEMP:  -1; 6HR MAX TEMP:  12;

FORT DODGE *     N/A     21   7  53 W10G17    30.24F WCI  10
MASON CITY       N/A     10  -2  58 NW13      30.26S WCI  -5
6HR MIN TEMP:  -1; 6HR MAX TEMP:  10;

FOREST CITY *  SUNNY     12  -2  52 NW9       30.25S WCI   0
IOWA FALLS *     N/A     18   7  62 NW10      30.26S WCI   6
$$

IAZ007>011-017>019-026>030-037>042-050>054-066-041900-
   NORTHEAST IOWA

CITY           SKY/WX    TMP DP  RH WIND       PRES   REMARKS
CEDAR RAPIDS     N/A     12   3  67 NW17      30.27R WCI  -5
6HR MIN TEMP:   6; 6HR MAX TEMP:  13;

CHARLES CITY * SUNNY     10  -4  52 NW15      30.26R WCI  -6
CLINTON *        N/A     14   1  57 NW17      30.26F WCI  -3
DECORAH *      SUNNY     10  -8  44 NW9G18    30.21F WCI  -2
DUBUQUE          N/A     13  -2  51 NW17      30.21R WCI  -4
MONTICELLO *   SUNNY     12  -2  52 NW21      30.26R WCI  -6
OELWEIN *      SUNNY     10  -4  52 NW12      30.26R WCI  -4
WATERLOO         N/A     12   0  58 N12       30.28R WCI  -2
6HR MIN TEMP:   5; 6HR MAX TEMP:  12;

$$

IAZ064-065-067-068-078-041900-
   EAST CENTRAL IOWA

CITY           SKY/WX    TMP DP  RH WIND       PRES   REMARKS
DAVENPORT        N/A     13   1  59 NW15      30.26R WCI  -3
6HR MIN TEMP:   8; 6HR MAX TEMP:  13;

IOWA CITY        N/A     15   0  51 NW15G25   30.30S WCI   0
6HR MIN TEMP:  10; 6HR MAX TEMP:  15;

MT. PLEASANT *   N/A     18   1  47 NW15G21   30.28S WCI   4
MUSCATINE *    SUNNY     18   3  53 NW14      30.29S WCI   4
QUAD CITIES      N/A     16   4  59 NW15      30.26R WCI   1
6HR MIN TEMP:  11; 6HR MAX TEMP:  16;

$$

IAZ062-063-075>077-085>089-095>099-041900-
   SOUTHEAST IOWA

CITY           SKY/WX    TMP DP  RH WIND       PRES   REMARKS
BURLINGTON       N/A     18   3  52 N17G23    30.26R WCI   3
6HR MIN TEMP:  11; 6HR MAX TEMP:  18;

FAIRFIELD *    SUNNY     18   1  49 NW15      30.29S WCI   3
FORT MADISON * SUNNY     19   5  53 NW13G18   30.28S WCI   7
KEOKUK *       MOSUNNY   19   5  53 NW13G20   30.28R WCI   7
OSKALOOSA *      N/A     19   6  56 NW20      30.28F WCI   4
CENTERVILLE *  MOSUNNY   23   1  39 NW15      30.29S WCI  10
OTTUMWA          N/A     20   4  50 N21G28    30.28F WCI   4
6HR MIN TEMP:  13; 6HR MAX TEMP:  21;

WASHINGTON *   SUNNY     18   5  57 N16G23    30.28F WCI   3
$$

ABBREVIATIONS USED IN REMARKS
   TC - TEMPERATURES IN CELSIUS
  WCI - WIND CHILL INDEX
   HX - HEAT INDEX
  VSB - VISIBILITY
$$




USA.gov is the U.S. government's official web portal to all federal, state and local government web resources and services.